| time (UTC) | temp F | wind direction | speed MPH | gust MPH | rain 1hr in | rain 24hr in | rain mn in | humidity % | barometer mb |
| 20260505055005 | 63 | 145 | 3.0 | 7.0 | 0.00 | 0.00 | 0.00 | 76 | 1007.6 |
| 20260505054506 | 64 | 150 | 3.0 | 6.0 | 0.00 | 0.00 | 0.00 | 75 | 1007.9 |
| 20260505054004 | 64 | 146 | 2.0 | 6.0 | 0.00 | 0.00 | 0.00 | 75 | 1007.8 |
| 20260505053504 | 64 | 149 | 3.0 | 6.0 | 0.00 | 0.00 | 0.00 | 75 | 1007.8 |
| 20260505053005 | 64 | 144 | 5.0 | 7.0 | 0.00 | 0.00 | 0.00 | 75 | 1007.8 |
| 20260505051504 | 64 | 150 | 4.0 | 8.0 | 0.00 | 0.00 | 0.00 | 74 | 1007.9 |
| 20260505051005 | 64 | 152 | 5.0 | 7.0 | 0.00 | 0.00 | 0.00 | 74 | 1007.8 |
| 20260505050504 | 64 | 165 | 3.0 | 7.0 | 0.00 | 0.00 | 0.00 | 73 | 1007.9 |
| 20260505041504 | 65 | 155 | 3.0 | 5.0 | 0.00 | 0.00 | 0.00 | 71 | 1008.4 |
| 20260505040504 | 65 | 142 | 2.0 | 3.0 | 0.00 | 0.00 | 0.00 | 71 | 1008.5 |
| 20260505040006 | 66 | 148 | 2.0 | 5.0 | 0.00 | 0.00 | 0.00 | 70 | 1008.6 |
| 20260505035504 | 66 | 153 | 2.0 | 5.0 | 0.00 | 0.00 | 0.00 | 69 | 1008.6 |
| 20260505034504 | 65 | 198 | 2.0 | 8.0 | 0.00 | 0.00 | 0.00 | 71 | 1008.7 |
| 20260505033505 | 66 | 179 | 1.0 | 5.0 | 0.00 | 0.00 | 0.00 | 70 | 1008.8 |
| 20260505033005 | 66 | 178 | 2.0 | 5.0 | 0.00 | 0.00 | 0.00 | 69 | 1008.8 |
| 20260505032504 | 66 | 181 | 3.0 | 6.0 | 0.00 | 0.00 | 0.00 | 68 | 1008.8 |
| 20260505032005 | 66 | 173 | 2.0 | 5.0 | 0.00 | 0.00 | 0.00 | 69 | 1008.7 |
| 20260505031505 | 67 | 115 | 2.0 | 6.0 | 0.00 | 0.00 | 0.00 | 68 | 1008.7 |
| 20260505031004 | 67 | 193 | 2.0 | 7.0 | 0.00 | 0.00 | 0.00 | 68 | 1008.6 |
| 20260505030505 | 67 | 132 | 2.0 | 7.0 | 0.00 | 0.00 | 0.00 | 68 | 1008.6 |
| 20260505025506 | 67 | 196 | 3.0 | 9.0 | 0.00 | 0.00 | 0.00 | 66 | 1008.4 |
| 20260505025005 | 68 | 199 | 3.0 | 8.0 | 0.00 | 0.00 | 0.00 | 66 | 1008.3 |
| 20260505024508 | 68 | 193 | 2.0 | 6.0 | 0.00 | 0.00 | 0.00 | 65 | 1008.3 |
| 20260505024004 | 68 | 176 | 3.0 | 7.0 | 0.00 | 0.00 | 0.00 | 65 | 1008.2 |
| 20260505023504 | 68 | 180 | 3.0 | 8.0 | 0.00 | 0.00 | 0.00 | 64 | 1008.1 |
| 20260505023004 | 68 | 156 | 2.0 | 7.0 | 0.00 | 0.00 | 0.00 | 65 | 1007.9 |
| 20260505022505 | 68 | 214 | 3.0 | 13.0 | 0.00 | 0.00 | 0.00 | 65 | 1007.9 |
| 20260505022004 | 68 | 192 | 3.0 | 9.0 | 0.00 | 0.00 | 0.00 | 64 | 1007.9 |
| 20260505021506 | 68 | 198 | 2.0 | 9.0 | 0.00 | 0.00 | 0.00 | 64 | 1007.8 |
| 20260505021004 | 68 | 183 | 3.0 | 7.0 | 0.00 | 0.00 | 0.00 | 64 | 1007.7 |
| 20260505020504 | 68 | 147 | 2.0 | 5.0 | 0.00 | 0.00 | 0.00 | 65 | 1007.6 |
| 20260505020005 | 68 | 185 | 2.0 | 6.0 | 0.00 | 0.00 | 0.00 | 64 | 1007.6 |
| 20260505015504 | 69 | 192 | 1.0 | 3.0 | 0.00 | 0.00 | 0.00 | 64 | 1007.6 |
| 20260505015004 | 69 | 197 | 1.0 | 8.0 | 0.00 | 0.00 | 0.00 | 63 | 1007.5 |
| 20260505014504 | 69 | 165 | 2.0 | 8.0 | 0.00 | 0.00 | 0.00 | 62 | 1007.4 |
| 20260505014004 | 69 | 165 | 2.0 | 6.0 | 0.00 | 0.00 | 0.00 | 62 | 1007.3 |
| 20260505013504 | 70 | 197 | 3.0 | 8.0 | 0.00 | 0.00 | 0.00 | 62 | 1007.3 |
| 20260505013005 | 70 | 207 | 2.0 | 8.0 | 0.00 | 0.00 | 0.00 | 62 | 1007.3 |
| 20260505012504 | 70 | 190 | 2.0 | 7.0 | 0.00 | 0.00 | 0.00 | 62 | 1007.2 |
| 20260505012005 | 70 | 189 | 2.0 | 9.0 | 0.00 | 0.00 | 0.00 | 61 | 1007.0 |
| 20260505011504 | 71 | 184 | 2.0 | 6.0 | 0.00 | 0.00 | 0.00 | 60 | 1007.0 |
| 20260505011007 | 71 | 170 | 2.0 | 7.0 | 0.00 | 0.00 | 0.00 | 60 | 1006.8 |
| 20260505010504 | 71 | 156 | 3.0 | 7.0 | 0.00 | 0.00 | 0.00 | 58 | 1006.7 |
| 20260505010008 | 72 | 158 | 1.0 | 9.0 | 0.00 | 0.00 | 0.00 | 58 | 1006.7 |
| 20260505005004 | 73 | 183 | 3.0 | 7.0 | 0.00 | 0.00 | 0.00 | 57 | 1006.7 |
| 20260505004504 | 73 | 184 | 3.0 | 9.0 | 0.00 | 0.00 | 0.00 | 56 | 1006.7 |
| 20260505004005 | 73 | 188 | 6.0 | 12.0 | 0.00 | 0.00 | 0.00 | 56 | 1006.6 |
| 20260505003504 | 73 | 210 | 4.0 | 9.0 | 0.00 | 0.00 | 0.00 | 56 | 1006.6 |
| 20260505003005 | 74 | 188 | 7.0 | 13.0 | 0.00 | 0.00 | 0.00 | 55 | 1006.6 |
| 20260505001504 | 75 | 213 | 4.0 | 10.0 | 0.00 | 0.00 | 0.00 | 54 | 1006.5 |
| 20260505000504 | 75 | 182 | 5.0 | 14.0 | 0.00 | 0.00 | 0.00 | 53 | 1006.5 |
| 20260505000004 | 76 | 210 | 6.0 | 13.0 | 0.00 | 0.00 | 0.00 | 53 | 1006.4 |
| 20260504235504 | 76 | 210 | 9.0 | 15.0 | 0.00 | 0.00 | 0.00 | 51 | 1006.4 |
| 20260504235004 | 76 | 190 | 5.0 | 9.0 | 0.00 | 0.00 | 0.00 | 52 | 1006.4 |
| 20260504234504 | 77 | 192 | 7.0 | 14.0 | 0.00 | 0.00 | 0.00 | 51 | 1006.3 |
| 20260504233505 | 77 | 189 | 3.0 | 9.0 | 0.00 | 0.00 | 0.00 | 52 | 1006.3 |
| 20260504233005 | 78 | 203 | 3.0 | 10.0 | 0.00 | 0.00 | 0.00 | 51 | 1006.4 |
| 20260504232504 | 78 | 195 | 3.0 | 12.0 | 0.00 | 0.00 | 0.00 | 50 | 1006.5 |
| 20260504232004 | 78 | 200 | 8.0 | 13.0 | 0.00 | 0.00 | 0.00 | 50 | 1006.5 |
| 20260504231506 | 78 | 170 | 3.0 | 10.0 | 0.00 | 0.00 | 0.00 | 50 | 1006.5 |
| 20260504231004 | 78 | 194 | 7.0 | 15.0 | 0.00 | 0.00 | 0.00 | 49 | 1006.7 |
| 20260504230504 | 78 | 207 | 5.0 | 15.0 | 0.00 | 0.00 | 0.00 | 48 | 1006.8 |
| 20260504230005 | 78 | 213 | 7.0 | 13.0 | 0.00 | 0.00 | 0.00 | 48 | 1006.9 |
| 20260504225004 | 79 | 215 | 7.0 | 12.0 | 0.00 | 0.00 | 0.00 | 47 | 1006.8 |
| 20260504224504 | 79 | 219 | 7.0 | 12.0 | 0.00 | 0.00 | 0.00 | 47 | 1006.8 |
| 20260504223505 | 79 | 212 | 6.0 | 13.0 | 0.00 | 0.00 | 0.00 | 47 | 1006.9 |
| 20260504223004 | 79 | 215 | 8.0 | 16.0 | 0.00 | 0.00 | 0.00 | 46 | 1007.0 |
| 20260504222004 | 79 | 217 | 7.0 | 14.0 | 0.00 | 0.00 | 0.00 | 47 | 1007.0 |
| 20260504221504 | 79 | 233 | 6.0 | 12.0 | 0.00 | 0.00 | 0.00 | 47 | 1007.1 |
| 20260504221004 | 79 | 236 | 8.0 | 15.0 | 0.00 | 0.00 | 0.00 | 45 | 1007.0 |
| 20260504220505 | 79 | 232 | 7.0 | 13.0 | 0.00 | 0.00 | 0.00 | 45 | 1007.1 |
| 20260504220004 | 79 | 218 | 5.0 | 13.0 | 0.00 | 0.00 | 0.00 | 48 | 1007.0 |
| 20260504215504 | 79 | 219 | 7.0 | 13.0 | 0.00 | 0.00 | 0.00 | 48 | 1007.1 |
| 20260504214504 | 79 | 210 | 6.0 | 13.0 | 0.00 | 0.00 | 0.00 | 48 | 1007.1 |
| 20260504214005 | 79 | 217 | 8.0 | 13.0 | 0.00 | 0.00 | 0.00 | 47 | 1007.3 |
| 20260504213504 | 79 | 223 | 7.0 | 16.0 | 0.00 | 0.00 | 0.00 | 46 | 1007.4 |
| 20260504213006 | 79 | 209 | 7.0 | 14.0 | 0.00 | 0.00 | 0.00 | 46 | 1007.4 |
| 20260504212504 | 79 | 209 | 6.0 | 17.0 | 0.00 | 0.00 | 0.00 | 48 | 1007.3 |
| 20260504212006 | 79 | 205 | 7.0 | 17.0 | 0.00 | 0.00 | 0.00 | 48 | 1007.3 |
| 20260504211004 | 79 | 221 | 9.0 | 18.0 | 0.00 | 0.00 | 0.00 | 47 | 1007.4 |
| 20260504210506 | 79 | 203 | 7.0 | 17.0 | 0.00 | 0.00 | 0.00 | 50 | 1007.4 |
| 20260504210004 | 79 | 221 | 6.0 | 15.0 | 0.00 | 0.00 | 0.00 | 48 | 1007.5 |
| 20260504205504 | 79 | 212 | 6.0 | 15.0 | 0.00 | 0.00 | 0.00 | 48 | 1007.5 |
| 20260504205005 | 79 | 197 | 9.0 | 17.0 | 0.00 | 0.00 | 0.00 | 48 | 1007.6 |
| 20260504204506 | 79 | 205 | 6.0 | 13.0 | 0.00 | 0.00 | 0.00 | 49 | 1007.6 |
| 20260504204006 | 79 | 217 | 5.0 | 15.0 | 0.00 | 0.00 | 0.00 | 49 | 1007.6 |
| 20260504203504 | 78 | 194 | 7.0 | 16.0 | 0.00 | 0.00 | 0.00 | 48 | 1007.8 |
| 20260504202504 | 78 | 229 | 8.0 | 15.0 | 0.00 | 0.00 | 0.00 | 49 | 1007.8 |
| 20260504201504 | 79 | 205 | 7.0 | 18.0 | 0.00 | 0.00 | 0.00 | 48 | 1008.1 |
| 20260504200504 | 78 | 238 | 7.0 | 18.0 | 0.00 | 0.00 | 0.00 | 47 | 1008.2 |
| 20260504200004 | 79 | 210 | 10.0 | 18.0 | 0.00 | 0.00 | 0.00 | 48 | 1008.2 |
| 20260504195505 | 79 | 214 | 7.0 | 17.0 | 0.00 | 0.00 | 0.00 | 49 | 1008.1 |
| 20260504195004 | 79 | 213 | 8.0 | 17.0 | 0.00 | 0.00 | 0.00 | 48 | 1008.3 |
| 20260504194505 | 79 | 192 | 5.0 | 12.0 | 0.00 | 0.00 | 0.00 | 49 | 1008.2 |
| 20260504193506 | 78 | 212 | 12.0 | 18.0 | 0.00 | 0.00 | 0.00 | 48 | 1008.3 |
| 20260504193004 | 79 | 216 | 10.0 | 20.0 | 0.00 | 0.00 | 0.00 | 48 | 1008.4 |
| 20260504192504 | 79 | 210 | 8.0 | 21.0 | 0.00 | 0.00 | 0.00 | 47 | 1008.4 |
| 20260504192004 | 79 | 203 | 5.0 | 16.0 | 0.00 | 0.00 | 0.00 | 48 | 1008.4 |
| 20260504191504 | 79 | 190 | 7.0 | 14.0 | 0.00 | 0.00 | 0.00 | 47 | 1008.5 |
| 20260504191004 | 79 | 195 | 9.0 | 17.0 | 0.00 | 0.00 | 0.00 | 48 | 1008.4 |
| 20260504185504 | 78 | 205 | 8.0 | 14.0 | 0.00 | 0.00 | 0.00 | 47 | 1008.7 |
| 20260504185004 | 78 | 211 | 10.0 | 9.0 | 0.00 | 0.00 | 0.00 | 49 | 1008.7 |
| 20260504183504 | 78 | 211 | 10.0 | 15.0 | 0.00 | 0.00 | 0.00 | 49 | 1008.7 |
| 20260504183004 | 78 | 194 | 6.0 | 16.0 | 0.00 | 0.00 | 0.00 | 48 | 1008.8 |
| 20260504182004 | 78 | 206 | 7.0 | 16.0 | 0.00 | 0.00 | 0.00 | 48 | 1008.8 |
| 20260504181504 | 78 | 211 | 6.0 | 15.0 | 0.00 | 0.00 | 0.00 | 48 | 1008.9 |
| 20260504181004 | 77 | 216 | 5.0 | 14.0 | 0.00 | 0.00 | 0.00 | 49 | 1008.9 |
| 20260504180504 | 77 | 197 | 10.0 | 20.0 | 0.00 | 0.00 | 0.00 | 49 | 1008.9 |
| 20260504180005 | 77 | 188 | 7.0 | 16.0 | 0.00 | 0.00 | 0.00 | 48 | 1008.9 |
| 20260504175005 | 76 | 208 | 5.0 | 13.0 | 0.00 | 0.00 | 0.00 | 52 | 1008.9 |
| 20260504174504 | 76 | 216 | 10.0 | 18.0 | 0.00 | 0.00 | 0.00 | 50 | 1009.0 |
| 20260504174004 | 76 | 232 | 7.0 | 16.0 | 0.00 | 0.00 | 0.00 | 50 | 1009.0 |
| 20260504173505 | 76 | 213 | 8.0 | 16.0 | 0.00 | 0.00 | 0.00 | 50 | 1009.2 |
| 20260504173005 | 76 | 201 | 10.0 | 20.0 | 0.00 | 0.00 | 0.00 | 51 | 1009.2 |
| 20260504172505 | 76 | 205 | 11.0 | 18.0 | 0.00 | 0.00 | 0.00 | 50 | 1009.3 |
| 20260504172005 | 76 | 224 | 6.0 | 16.0 | 0.00 | 0.00 | 0.00 | 50 | 1009.4 |
| 20260504171504 | 76 | 166 | 6.0 | 15.0 | 0.00 | 0.00 | 0.00 | 52 | 1009.2 |
| 20260504151004 | 70 | 217 | 6.0 | 16.0 | 0.00 | 0.00 | 0.00 | 55 | 1010.5 |
| 20260504141006 | 65 | 211 | 5.0 | 10.0 | 0.00 | 0.00 | 0.00 | 67 | 1011.2 |
| 20260504140505 | 64 | 207 | 5.0 | 14.0 | 0.00 | 0.00 | 0.00 | 69 | 1011.3 |
| 20260504130504 | 60 | 190 | 3.0 | 9.0 | 0.00 | 0.00 | 0.00 | 75 | 1011.4 |
| 20260504110504 | 56 | 179 | 1.0 | 2.0 | 0.00 | 0.00 | 0.00 | 81 | 1011.0 |
| 20260504100504 | 57 | 183 | 2.0 | 3.0 | 0.00 | 0.00 | 0.00 | 80 | 1011.1 |
| 20260504082005 | 57 | 159 | 2.0 | 2.0 | 0.00 | 0.00 | 0.00 | 80 | 1011.4 |
| 20260504081504 | 57 | 151 | 1.0 | 2.0 | 0.00 | 0.00 | 0.00 | 80 | 1011.4 |
| 20260504081004 | 57 | 152 | 2.0 | 3.0 | 0.00 | 0.00 | 0.00 | 80 | 1011.4 |
| 20260504080504 | 57 | 154 | 1.0 | 3.0 | 0.00 | 0.00 | 0.00 | 79 | 1011.5 |